Regional Weather Roundup
Issued by NWS

Home | Current Version | Previous Version | Text Only | Print | Product List | Glossary On
Versions: 1 2 3 4 5 6 7 8 9 10 11 12 13 14 15 16 17 18 19 20 21 22 23 24 25 26 27 28
000
ASUS45 KBOI 110810
RWRID

IDAHO REGIONAL WEATHER ROUNDUP
NATIONAL WEATHER SERVICE BOISE ID
100 AM MST MON DEC 11 2017

NOTE: "FAIR" INDICATES FEW OR NO CLOUDS BELOW 12000 FEET
WITH NO SIGNIFICANT WEATHER AND/OR OBSTRUCTIONS TO VISIBILITY

IDZ012-014-110900-
SOUTHWEST IDAHO


CITY           SKY/WX    TMP DP  RH WIND       PRES   REMARKS
BOISE          CLOUDY    25  20  81 CALM      30.68S
CALDWELL       CLOUDY    27  22  81 E7        30.71S WCI  19
MOUNTAIN HOME  CLOUDY    24  24 100 SE6       30.67F WCI  16
$$

IDZ016-017-110900-
SOUTHCENTRAL IDAHO


CITY           SKY/WX    TMP DP  RH WIND       PRES   REMARKS
BURLEY         PTCLDY    15  11  83 MISG      30.58F
JEROME         FOG       18  17  96 CALM      30.61S VSB 1/4
TWIN FALLS     FOG       21  19  92 CALM      30.60F VSB 1/4
$$

IDZ019>023-110900-
SOUTHEAST IDAHO


CITY           SKY/WX    TMP DP  RH WIND       PRES   REMARKS
IDAHO FALLS    CLOUDY    13  11  92 N8        30.60F WCI   2
POCATELLO      CLOUDY    14   9  80 CALM      30.60F
REXBURG        CLOUDY    11   8  88 E3        30.59F
$$

IDZ006-010-011-018-031-032-110900-
CENTRAL IDAHO MOUNTAINS


CITY           SKY/WX    TMP DP  RH WIND       PRES   REMARKS
MCCALL         CLEAR     12   8  84 CALM      30.54S
HAILEY         CLEAR     25  18  74 NW6       30.59S WCI  18
STANLEY          N/A      3  -1  83 CALM      30.63S
SALMON         FLURRIES  16  14  92 E3        30.74F
CHALLIS        CLEAR      9   4  80 CALM      30.65F
$$

IDZ002-004-006-007-026-110900-
NORTHERN IDAHO


CITY           SKY/WX    TMP DP  RH WIND       PRES   REMARKS
LEWISTON       MOCLDY    25  23  92 CALM      30.62S
LOWELL           N/A     25  23  92 N3        30.65F
COEUR D`ALENE  CLOUDY    27  23  85 E5        30.59F WCI  22
MULLAN PASS    CLEAR     37  32  82 S5        30.48F WCI  33
$$




USA.gov is the U.S. government's official web portal to all federal, state and local government web resources and services.